Home   Weather   Launceston   Past weeks
Flag for Australia

Past Weather in Launceston, Tasmania, Australia — Yesterday and Last 2 Weeks

Now
55 °F

Overcast.


Feels Like: 54 °F
Forecast: 65 / 47 °F
Wind: 7 mph from Northwest

Location: Launceston Airport

Current Time: Oct 15, 2019 at 10:40:25 am

Latest Report: Oct 15, 2019 at 10:00 am


Visibility: N/A

Pressure: 29.86 "Hg

Humidity: 77%

Dew Point: 48 °F

Location of LauncestonLocation

Past Weather in Launceston — Graph

°F

Launceston Temperature Yesterday

Maximum temperature yesterday: 66 °F (at 1:00 pm)
Minimum temperature yesterday: 39 °F (at 3:30 am)
Average temperature yesterday: 52 °F

High & Low Weather Summary for the Past Weeks

 TemperatureHumidityPressure
High75 °F (Oct 3, 1:00 pm)100% (Oct 2, 3:30 am)30.36 "Hg (Oct 2, 3:30 am)
Low34 °F (Oct 1, 5:30 am)24% (Oct 3, 3:30 pm)29.50 "Hg (Oct 6, 12:30 pm)
Average50 °F71%30.08 "Hg
* Reported Sep 30 8:00 am — Oct 15 9:30 am, Launceston. Weather by CustomWeather, © 2019

Note: Actual official high and low records may vary slightly from our data, if they occured in-between our weather recording intervals... More about our weather records

Advertising

Launceston Weather History for the Previous 24 Hours

Scroll right to see more
 ConditionsComfort  
Time TempWeatherWind HumidityBarometerVisibility
9:30 am
Tue, Oct 15
55 °FOvercast.6 mph72%29.86 "HgN/A
9:00 am54 °FOvercast.6 mph82%29.86 "HgN/A
8:30 am52 °FOvercast.6 mph88%29.86 "HgN/A
8:04 am52 °FPartly sunny.8 mph88%29.89 "HgN/A
7:30 am52 °FSunny.6 mph94%29.86 "HgN/A
7:08 am48 °FSunny.3 mph100%29.86 "HgN/A
6:30 am48 °FBroken clouds.No wind94%29.86 "Hg0 mi
6:00 am50 °FPassing clouds.No wind94%29.86 "HgN/A
5:39 am50 °FPassing clouds.No wind94%29.86 "Hg4 mi
5:00 am52 °FOvercast.No wind94%29.86 "HgN/A
4:30 am50 °FOvercast.3 mph94%29.83 "HgN/A
4:00 am52 °FOvercast.6 mph94%29.86 "HgN/A
3:30 am52 °FOvercast.5 mph94%29.86 "HgN/A
3:00 am52 °FOvercast.6 mph94%29.86 "HgN/A
2:30 am52 °FMostly cloudy.7 mph94%29.86 "HgN/A
2:00 am52 °FMostly cloudy.9 mph94%29.86 "HgN/A
1:30 am52 °FMostly cloudy.9 mph94%29.86 "HgN/A
1:00 am52 °FOvercast.10 mph94%29.86 "HgN/A
12:30 am52 °FLow clouds.9 mph94%29.86 "HgN/A
12:00 am54 °FMostly cloudy.13 mph94%29.86 "HgN/A
11:31 pm
Mon, Oct 14
52 °FPassing clouds.13 mph94%29.83 "HgN/A
11:01 pm52 °FPassing clouds.12 mph94%29.83 "HgN/A
10:30 pm52 °FOvercast.10 mph94%29.83 "HgN/A
10:12 pm52 °FPassing clouds.9 mph94%29.86 "HgN/A
10:00 pm52 °FClear.9 mph94%29.86 "HgN/A
9:30 pm54 °FPassing clouds.10 mph88%29.86 "HgN/A
9:00 pm54 °FClear.10 mph88%29.86 "HgN/A
8:30 pm54 °FClear.10 mph88%29.83 "HgN/A
8:00 pm54 °FClear.13 mph94%29.83 "HgN/A
7:30 pm55 °FSprinkles. Partly cloudy.14 mph88%29.83 "HgN/A
7:00 pm57 °FMore clouds than sun.14 mph82%29.83 "HgN/A
6:30 pm59 °FMostly cloudy.14 mph72%29.83 "HgN/A
6:00 pm59 °FSprinkles. Mostly cloudy.12 mph77%29.83 "HgN/A
5:30 pm61 °FBroken clouds.14 mph68%29.83 "HgN/A
5:00 pm61 °FBroken clouds.14 mph68%29.80 "HgN/A
4:30 pm64 °FOvercast.16 mph60%29.83 "HgN/A
4:00 pm63 °FCloudy.16 mph59%29.83 "HgN/A
3:30 pm64 °FBroken clouds.17 mph56%29.83 "HgN/A
3:00 pm64 °FPartly sunny.20 mph52%29.83 "HgN/A
2:30 pm64 °FScattered clouds.17 mph52%29.83 "HgN/A
2:00 pm66 °FSunny.20 mph52%29.86 "HgN/A
1:30 pm66 °FPartly sunny.16 mph52%29.86 "HgN/A
1:00 pm66 °FSunny.16 mph49%29.86 "HgN/A
12:00 pm63 °FSunny.18 mph49%29.89 "HgN/A
11:30 am61 °FSunny.13 mph52%29.92 "HgN/A
11:00 am61 °FSunny.13 mph55%29.92 "HgN/A
10:30 am59 °FSunny.14 mph55%29.92 "HgN/A
10:00 am59 °FSunny.13 mph63%29.95 "HgN/A
Weather by CustomWeather, © 2019

See weather overview